KTXEAGLE7 Weather Reports


Display with metric or nautical units.
time (UTC)temp
F
wind
direction
speed
MPH
gust
MPH
rain 1hr
in
rain 24hr
in
rain mn
in
humidity
%
barometer
mb
20260906190045 76 104 10.0 15.0 0.02 0.07 0.07 96 1014.2
20260906184543 77 98 10.0 15.0 0.01 0.06 0.06 95 1014.2
20260906183042 80 118 11.0 15.0 0.00 0.05 0.05 90 1014.8
20260906181545 88 107 6.0 10.0 0.01 0.05 0.05 74 1014.3
20260906180045 89 340 1.0 5.0 0.01 0.05 0.05 71 1014.0
20260906174540 89 324 6.0 9.0 0.01 0.05 0.05 70 1014.1
20260906173049 89 172 1.0 5.0 0.02 0.05 0.05 68 1014.2
20260906171537 89 289 5.0 8.0 0.01 0.04 0.04 69 1014.4
20260906170039 88 313 0.0 4.0 0.02 0.04 0.04 72 1014.6
20260906164531 87 295 2.0 4.0 0.02 0.04 0.04 74 1014.9
20260906163030 86 268 3.0 6.0 0.03 0.03 0.03 78 1015.1
20260906161530 85 194 5.0 7.0 0.03 0.03 0.03 81 1015.0
20260906160036 84 177 2.0 7.0 0.02 0.02 0.02 86 1014.9
20260906154539 81 329 2.0 5.0 0.01 0.01 0.01 84 1014.9
20260906153025 85 247 4.0 8.0 0.00 0.00 0.00 84 1014.8
20260906151523 85 263 2.0 5.0 0.00 0.00 0.00 82 1014.7
20260906150024 86 129 2.0 4.0 0.00 0.00 0.00 83 1014.8
20260906144519 85 106 3.0 4.0 0.00 0.00 0.00 86 1014.7
20260906143017 85 135 2.0 6.0 0.00 0.00 0.00 86 1014.7
20260906141514 84 81 0.0 4.0 0.00 0.00 0.00 88 1014.6
20260906140012 83 36 0.0 3.0 0.00 0.00 0.00 94 1014.6
20260906134506 81 146 1.0 4.0 0.00 0.00 0.00 97 1014.5
20260906133004 80 110 2.0 4.0 0.00 0.00 0.00 99 1014.4
20260906131506 79 112 2.0 4.0 0.00 0.00 0.00 99 1014.3
20260906130005 78 121 2.0 4.0 0.00 0.00 0.00 100 1014.3
20260906124603 78 123 1.0 2.0 0.00 0.00 0.00 100 1014.1
20260906123158 77 123 0.0 2.0 0.00 0.00 0.00 100 1014.0
20260906113047 77 99 2.0 4.0 0.00 0.00 0.00 99 1012.8
20260906111542 77 81 2.0 5.0 0.00 0.00 0.00 99 1012.8
20260906110041 77 100 2.0 4.0 0.00 0.00 0.00 99 1012.6
20260906104540 78 95 0.0 2.0 0.00 0.00 0.00 99 1012.6
20260906103040 78 95 0.0 2.0 0.00 0.00 0.00 99 1012.6
20260906101540 78 95 2.0 3.0 0.00 0.00 0.00 98 1012.5
20260906100038 78 204 0.0 0.0 0.00 0.00 0.00 98 1012.5
20260906094537 78 204 0.0 0.0 0.00 0.00 0.00 98 1012.4
20260906093037 78 204 0.0 0.0 0.00 0.00 0.00 98 1012.3
20260906091534 79 204 0.0 0.0 0.00 0.00 0.00 97 1012.4
20260906090033 79 204 0.0 0.0 0.00 0.00 0.00 97 1012.4
20260906084532 79 204 0.0 0.0 0.00 0.00 0.00 97 1012.3
20260906083039 79 204 0.0 0.0 0.00 0.00 0.00 97 1012.2
20260906081535 79 204 0.0 1.0 0.00 0.00 0.00 97 1012.3
20260906080029 79 204 0.0 2.0 0.00 0.00 0.00 96 1012.5
20260906074527 79 204 1.0 3.0 0.00 0.00 0.00 96 1012.5
20260906073025 79 204 2.0 4.0 0.00 0.00 0.00 95 1012.6
20260906071523 80 203 2.0 4.0 0.00 0.00 0.00 95 1012.8
20260906070022 80 231 2.0 5.0 0.00 0.00 0.00 96 1012.9
20260906064528 80 231 2.0 4.0 0.00 0.00 0.00 96 1013.2
20260906063022 80 231 2.0 3.0 0.00 0.00 0.00 96 1013.3
20260906061519 79 222 2.0 5.0 0.00 0.00 0.00 96 1013.2
20260906060019 80 218 3.0 4.0 0.00 0.00 0.00 96 1013.2
20260906054517 79 182 2.0 4.0 0.00 0.00 0.00 96 1013.1
20260906053015 80 182 3.0 4.0 0.00 0.00 0.00 95 1012.9
20260906051512 80 190 3.0 6.0 0.00 0.00 0.00 95 1013.0
20260906050135 80 191 2.0 4.0 0.00 0.00 0.00 95 1013.2
20260906044510 80 177 1.0 4.0 0.00 0.00 0.00 95 1013.3
20260906043011 80 142 0.0 0.0 0.00 0.00 0.00 94 1013.4
20260906041510 80 142 0.0 0.0 0.00 0.00 0.00 94 1013.6
20260906040009 80 142 0.0 0.0 0.00 0.00 0.00 94 1013.4
20260906034508 80 142 0.0 0.0 0.00 0.00 0.00 93 1013.3
20260906033008 80 142 0.0 0.0 0.00 0.00 0.00 92 1013.2
20260906031506 80 142 0.0 0.0 0.00 0.00 0.00 91 1013.3
20260906030006 81 142 0.0 4.0 0.00 0.00 0.00 90 1013.2
20260906024507 81 142 3.0 5.0 0.00 0.00 0.00 88 1012.8
20260906023008 82 153 3.0 5.0 0.00 0.00 0.00 87 1012.6
20260906021504 82 123 2.0 4.0 0.00 0.00 0.00 86 1012.3
20260906020004 82 108 2.0 3.0 0.00 0.00 0.00 85 1012.0
20260906014508 83 114 3.0 7.0 0.00 0.00 0.00 84 1011.9
20260906013008 83 97 2.0 4.0 0.00 0.00 0.00 84 1011.5
20260906011503 84 121 2.0 6.0 0.00 0.00 0.00 83 1011.5
20260906010002 84 116 3.0 7.0 0.00 0.00 0.00 80 1011.4
20260906004502 85 129 3.0 9.0 0.00 0.00 0.00 78 1011.5
20260906003004 86 131 6.0 9.0 0.00 0.00 0.00 77 1011.5
20260906001500 87 101 5.0 10.0 0.00 0.00 0.00 75 1011.8
20260906000101 87 132 4.0 10.0 0.00 0.00 0.00 74 1011.8
20260905234614 88 123 7.0 10.0 0.00 0.00 0.00 73 1011.6
20260905233100 88 142 7.0 11.0 0.00 0.00 0.00 73 1011.7
20260905231559 89 121 9.0 13.0 0.00 0.00 0.00 71 1011.7
20260905230058 90 134 8.0 15.0 0.00 0.00 0.00 67 1011.4
20260905224602 91 129 11.0 16.0 0.00 0.00 0.00 65 1011.3
20260905223057 90 131 7.0 13.0 0.00 0.00 0.00 70 1011.3
20260905221556 90 134 8.0 12.0 0.00 0.00 0.00 70 1011.3
20260905220055 90 122 8.0 13.0 0.00 0.00 0.00 68 1011.3
20260905214604 92 150 8.0 16.0 0.00 0.00 0.00 63 1011.3
20260905213053 92 128 10.0 16.0 0.00 0.00 0.00 62 1011.4
20260905211551 93 151 13.0 18.0 0.00 0.00 0.00 61 1011.4
20260905210050 94 113 7.0 13.0 0.00 0.00 0.00 58 1011.4
20260905204549 94 146 6.0 14.0 0.00 0.00 0.00 57 1011.4
20260905203046 94 134 5.0 9.0 0.00 0.00 0.00 56 1011.7
20260905201542 92 52 1.0 9.0 0.00 0.00 0.00 61 1011.9
20260905200045 94 161 3.0 7.0 0.00 0.00 0.00 60 1012.3
20260905194536 93 324 1.0 9.0 0.00 0.00 0.00 59 1012.5
20260905193033 92 132 4.0 9.0 0.00 0.00 0.00 60 1013.0
20260905191532 92 178 4.0 10.0 0.00 0.00 0.00 62 1013.1